Cloud_Cover
92 99 85 40 71 100 100 75 100 100 99 7 19 4 73 14 24 64 100 21 5 5 5 3 4 5 5 5 13 24 14 5 5 5 4 2 5 32 5 5 5 5 92 29 55
100 100 100 61 100 71 43 100 87 100 100 0 6 0 0 0 2 4 4 65 29 5 5 10 11 5 5 5 22 23 5 5 5 5 6 20 24 5 5 5 5 5 22 29 23
100 100 100 98 76 100 100 77 100 100 100 12 4 2 0 0 0 0 0 0 8 88 11 5 56 68 10 44 77 7 5 5 5 31 5 10 4 2 5 5 7 5 1 94 86
72 100 100 100 100 100 100 100 100 100 99 15 2 5 5 0 2 0 2 2 0 0 5 5 66 100 89 51 85 18 12 5 5 14 100 88 10 1 14 7 95 93 72 24 100
100 100 100 100 100 100 96 100 100 100 100 33 24 5 8 2 3 0 0 0 0 0 1 84 37 84 88 22 19 5 5 5 5 5 9 65 43 5 0 2 40 100 22 2 8
100 100 100 100 100 97 100 100 100 100 100 94 3 5 6 3 5 0 0 0 3 2 4 9 97 63 5 5 5 5 58 48 14 5 5 5 5 5 0 5 2 1 18 0 2
100 100 100 100 100 100 100 100 100 100 100 89 5 7 8 86 77 2 0 0 3 4 5 12 5 5 5 8 30 26 4 5 1 0 0 5 4 0 0 0 3 5 5 4 1
100 100 100 100 100 100 100 100 100 100 100 97 5 34 11 20 40 0 4 13 72 5 5 22 27 65 91 54 28 79 68 5 3 1 0 4 4 0 0 0 0 0 5 5 2
100 100 100 100 100 100 100 100 100 100 100 81 57 80 7 4 5 0 4 77 83 37 5 6 23 97 98 100 100 83 46 86 5 5 5 81 23 0 0 0 0 0 2 5 3
100 100 100 100 100 100 100 100 100 100 100 99 94 65 5 5 2 0 29 91 99 73 42 74 100 99 99 100 52 99 99 92 65 81 89 9 21 0 22 2 3 0 5 5 44
5 7 100 100 100 100 100 100 100 100 100 99 65 6 8 2 0 4 100 73 54 97 90 80 97 85 79 87 88 86 82 74 85 97 81 91 1 3 3 12 5 5 92 55 92
100 98 27 64 99 100 95 100 100 100 100 100 97 100 42 11 29 31 94 100 100 96 100 53 95 62 98 100 100 100 100 98 62 87 100 82 10 5 8 2 4 5 28 40 100
5 23 72 5 56 100 100 95 99 100 100 99 100 18 2 5 45 89 100 100 100 92 100 100 42 84 97 100 100 99 100 100 100 93 61 95 60 5 66 5 28 32 34 92 100
5 0 5 100 89 100 100 100 100 100 97 88 91 28 0 15 96 100 75 88 100 90 100 100 72 98 100 100 100 100 100 100 100 100 84 46 82 5 100 68 77 12 100 100 100
100 98 32 76 100 100 100 100 100 100 100 99 76 38 34 100 100 100 39 69 74 86 96 71 99 100 100 100 100 100 100 95 100 98 100 100 43 12 38 95 67 100 100 100 100
100 100 8 100 100 46 96 99 100 100 100 95 77 93 100 100 100 84 69 91 100 100 100 97 90 72 89 70 100 100 100 100 100 100 100 100 100 100 100 100 91 100 97 99 98
100 100 38 100 85 67 18 94 100 100 86 59 92 100 100 100 66 69 100 100 100 100 100 51 100 55 100 100 98 100 100 91 100 100 98 74 100 100 100 73 100 100 100 100 100
100 44 31 98 99 79 79 100 100 96 100 100 100 100 100 100 59 100 100 99 100 100 99 88 94 35 36 100 98 90 100 100 100 100 100 100 100 100 100 100 100 100 100 100 100
98 98 100 98 78 100 100 100 100 100 100 100 100 100 72 42 72 94 100 97 100 97 100 100 100 100 81 84 75 100 100 100 100 100 100 100 100 100 100 100 100 100 100 100 100
100 97 77 99 100 100 100 100 100 100 100 100 86 23 61 88 96 99 76 100 95 100 100 97 100 91 100 96 100 100 100 100 100 100 100 100 100 100 100 100 100 100 100 100 100
59 90 100 100 100 100 100 100 100 100 96 91 5 5 78 85 98 96 100 97 100 90 100 100 100 100 100 100 100 100 100 100 100 100 100 100 100 100 100 100 100 100 100 100 100
100 100 100 100 100 100 100 100 98 82 3 4 5 6 79 84 100 100 100 92 40 12 95 77 100 100 39 100 100 12 63 57 97 94 59 93 100 100 87 100 100 100 100 100 100
100 100 100 100 88 100 100 100 100 80 29 30 5 5 5 30 66 98 59 5 5 23 22 32 35 98 89 80 56 29 5 7 5 4 7 95 75 76 89 98 100 100 100 100 100
100 100 100 100 81 77 97 100 79 5 10 6 5 5 9 5 5 5 4 1 0 0 0 1 5 5 57 65 10 4 5 0 0 0 2 4 4 5 5 6 67 100 100 100 100
31 55 92 67 52 59 47 92 10 42 5 5 5 6 13 5 5 4 0 0 0 0 0 0 4 3 5 0 2 1 0 0 0 0 0 0 0 0 0 2 1 15 99 96 55
5 11 14 22 7 33 6 28 5 5 53 5 4 3 4 4 3 0 0 0 0 0 0 0 2 1 0 0 2 0 0 0 0 0 0 0 0 0 0 0 0 0 17 66 85
0 0 5 5 5 56 84 46 5 17 5 2 4 5 5 0 0 0 0 0 0 3 0 2 2 2 4 0 0 3 0 0 4 0 0 12 0 0 0 0 0 0 4 2 67